Wind_Speed
24 23 23 22 21 20 19 18 17 16 15 14 13 12 11 10 9 8 7 6 6 5 4 3 2 2 2 3 4 4 5 6 7 8 9 10 11 13 14 15 16 18 19
26 25 24 24 23 22 21 20 19 18 16 15 14 13 12 11 10 9 8 7 6 6 5 4 3 3 3 3 4 4 5 6 7 8 9 11 12 13 15 16 17 19 19
28 27 27 26 25 24 23 22 21 20 18 17 16 15 14 13 11 10 9 9 8 7 6 5 4 4 3 3 4 4 5 6 7 8 10 11 12 14 16 17 18 19 20
31 30 29 28 28 27 25 24 23 22 21 19 18 17 15 14 13 12 11 10 9 8 7 6 5 4 4 4 4 5 6 7 8 9 10 12 13 15 16 17 18 19 20
34 32 31 31 30 29 27 26 25 24 23 22 20 18 17 16 15 13 12 11 10 9 8 7 6 5 4 4 5 5 6 7 8 9 11 12 14 15 17 18 19 20 21
36 35 33 33 32 31 29 28 27 26 25 23 22 20 19 18 17 15 13 12 12 10 9 8 7 6 5 5 6 6 7 8 9 10 11 13 14 16 17 18 20 21 22
39 37 36 34 34 33 32 31 29 28 26 25 23 22 20 19 18 16 15 14 13 12 10 9 7 6 6 6 6 7 8 8 9 11 12 14 15 16 18 19 20 21 22
40 39 38 37 36 35 34 33 31 30 28 26 25 23 21 20 19 18 16 15 14 13 11 10 8 7 7 7 7 8 8 9 10 12 13 15 16 17 18 20 21 22 23
42 41 40 39 37 36 36 34 33 32 30 28 26 25 22 21 20 19 18 16 15 14 13 11 10 9 8 8 8 9 9 10 11 12 14 15 17 18 19 20 22 23 24
44 43 42 41 39 38 37 36 35 34 32 30 28 26 24 22 21 20 19 18 16 15 14 13 11 10 9 9 9 10 10 11 12 13 15 16 18 19 20 21 22 24 25
46 45 44 43 41 40 39 38 37 35 34 32 30 28 26 24 22 21 20 19 17 16 15 14 12 11 11 10 10 11 11 12 13 14 16 17 19 20 21 22 23 25 26
46 46 45 44 43 41 40 39 38 37 36 34 31 29 27 25 24 22 21 20 18 17 16 15 14 12 12 12 12 12 12 13 14 15 17 18 19 21 22 23 24 26 27
47 47 46 45 45 43 41 41 40 39 37 36 33 31 29 27 25 24 22 21 20 18 17 16 14 13 13 13 13 13 13 14 15 17 18 19 20 21 23 24 25 27 28
49 48 48 47 46 45 43 42 41 40 39 37 35 33 31 29 27 25 24 23 21 19 18 17 15 14 14 14 14 14 15 16 16 18 19 20 21 22 24 25 27 28 29
50 49 50 48 47 46 45 43 42 41 40 39 36 34 32 30 28 27 25 24 22 20 19 18 16 15 15 15 15 16 16 17 18 18 20 21 22 24 25 26 28 29 30
51 51 51 50 48 47 46 45 43 42 41 40 38 36 34 32 30 28 27 25 24 22 20 19 18 16 16 16 16 16 17 18 19 19 21 22 23 25 26 28 29 30 32
53 52 52 51 50 48 47 46 44 43 43 41 39 37 35 33 32 30 29 27 25 23 21 20 19 18 17 17 17 17 18 19 20 21 22 23 24 26 27 29 30 32 33
54 53 52 51 50 49 48 47 45 44 43 42 40 39 37 35 33 32 30 28 26 25 23 21 20 19 19 18 18 18 19 20 21 22 23 24 26 27 28 30 32 33 35
55 54 53 52 51 50 49 48 46 45 44 43 41 40 38 36 34 33 31 30 28 26 25 23 22 21 20 20 20 20 20 21 22 23 24 25 27 28 30 31 33 34 36
55 54 54 53 52 50 49 48 47 46 45 43 42 40 39 37 36 34 32 31 29 27 26 24 23 22 22 21 21 21 22 22 23 24 26 27 28 29 31 33 34 35 37
55 55 55 53 52 51 49 48 47 46 45 44 42 41 39 38 37 35 34 32 31 29 27 26 25 24 23 23 23 23 23 24 25 26 27 28 29 31 32 34 35 37 38
55 55 54 53 52 51 50 49 48 47 46 44 43 42 41 39 37 36 35 33 32 30 29 28 26 25 25 24 24 24 25 25 26 27 28 29 31 32 34 35 36 38 39
54 54 54 53 53 52 51 50 49 48 47 45 43 42 41 40 38 37 36 35 33 32 30 29 28 27 26 26 26 26 26 27 28 28 30 31 32 34 35 36 38 39 40
53 53 55 54 53 53 52 51 49 48 46 45 44 43 42 41 39 38 37 35 34 32 31 30 29 28 28 27 28 28 28 29 30 30 31 32 33 35 36 37 39 40 41
54 54 55 54 53 53 53 51 50 49 47 46 45 44 43 42 40 39 38 36 35 34 33 32 31 30 29 29 29 30 30 31 31 32 32 33 34 36 37 38 40 41 42
54 55 55 55 54 53 52 51 50 49 48 47 46 45 44 42 41 40 39 37 36 35 34 33 32 32 31 31 31 31 32 32 33 33 34 34 35 37 38 39 40 42 43
Wind_Direction
230 228 226 225 224 224 224 224 225 226 226 223 221 223 224 226 229 231 234 233 233 231 233 242 251 262 294 313 324 333 341 345 348 350 350 350 350 348 346 344 342 340 337
231 229 227 226 225 225 225 224 226 226 226 224 225 227 228 230 233 234 233 232 233 231 231 241 247 259 283 298 311 324 334 341 346 347 348 348 348 346 345 343 342 340 338
231 229 227 226 226 226 225 225 226 227 226 225 227 229 230 232 234 234 231 232 231 229 230 239 249 261 277 294 308 321 331 336 340 342 344 345 345 345 343 342 341 340 338
231 230 228 227 227 227 227 227 227 227 226 226 228 230 231 234 235 234 232 232 228 228 232 239 248 258 271 287 305 318 325 329 333 337 339 340 342 342 341 341 340 340 339
231 230 229 229 228 228 228 228 227 227 227 227 228 231 232 234 235 232 232 232 229 230 232 237 246 256 266 281 300 311 317 322 327 331 334 337 338 339 339 339 340 340 339
231 230 230 230 229 229 229 229 228 227 227 227 229 231 233 235 234 230 230 231 230 230 231 236 243 253 265 281 296 305 312 318 323 327 330 333 335 336 337 338 339 339 338
231 230 230 230 230 230 229 229 228 226 225 227 229 230 232 233 230 229 229 230 229 229 232 236 239 251 267 279 292 302 308 314 319 323 326 329 331 333 334 336 336 337 336
230 230 230 229 229 229 229 228 227 225 225 226 227 229 229 229 228 229 230 230 229 231 233 234 241 254 267 277 287 297 303 310 316 321 324 326 328 330 332 333 334 334 334
229 229 229 229 228 228 227 226 225 224 224 225 226 227 227 227 228 230 229 230 231 231 232 235 243 256 268 276 284 292 300 307 313 319 321 323 326 327 329 331 332 332 332
228 228 228 227 226 226 226 225 224 224 224 224 225 226 226 227 229 229 229 230 231 230 232 237 245 257 268 274 281 289 297 304 311 316 318 321 323 325 327 328 329 330 331
227 226 226 225 225 224 224 224 223 223 223 224 224 225 226 227 229 229 229 229 229 230 234 239 247 257 267 272 278 285 293 301 308 313 316 319 321 322 324 325 326 327 328
226 225 225 225 224 223 223 223 223 223 223 223 224 225 225 226 228 228 228 227 228 231 235 241 248 257 266 272 277 283 290 298 305 310 314 316 318 320 322 323 324 325 326
224 224 223 223 223 223 223 223 223 223 222 222 223 225 225 225 226 227 227 227 229 232 236 242 249 257 265 272 277 281 287 295 302 307 311 314 316 319 321 322 323 324 325
223 222 222 222 222 222 222 222 222 222 222 222 223 225 225 224 225 226 227 227 229 233 237 243 250 257 266 273 276 280 285 292 299 305 310 313 315 317 319 321 322 323 324
221 221 221 221 221 221 221 221 221 221 221 221 223 224 224 224 225 226 226 228 231 234 238 244 251 258 266 273 277 280 285 291 298 304 309 312 314 316 318 320 321 322 323
219 219 220 220 220 220 220 220 220 220 220 221 222 223 223 224 225 226 226 229 232 235 239 245 251 258 266 273 277 281 285 290 296 303 307 311 313 315 318 320 321 322 322
217 218 218 219 219 219 220 219 219 219 220 221 222 223 223 224 225 226 227 230 233 236 240 245 250 257 264 271 277 281 285 290 295 300 306 309 312 314 316 318 320 321 321
216 216 217 218 218 219 219 219 219 219 220 221 222 223 223 224 225 226 228 231 234 237 241 246 251 257 263 270 276 281 286 290 294 299 304 308 311 313 315 317 318 320 321
215 215 215 216 217 218 218 219 220 220 220 221 222 222 223 223 225 226 228 231 234 238 242 246 251 256 262 269 275 280 286 290 293 298 302 306 309 311 313 316 318 319 320
215 215 215 215 216 217 218 220 220 220 221 221 221 222 223 224 225 227 229 231 235 239 243 246 251 256 262 268 274 279 285 289 292 297 301 305 308 310 312 314 317 318 319
215 215 215 215 215 216 218 220 220 220 221 221 222 222 223 225 226 228 229 231 235 239 243 247 251 256 262 268 274 278 283 287 292 296 300 304 307 310 312 314 315 316 318
215 215 214 215 215 217 218 220 221 221 221 222 222 222 224 225 227 229 230 232 236 239 244 247 251 256 262 268 273 278 282 286 290 295 299 302 305 308 311 312 314 315 316
215 215 215 215 216 216 218 219 220 221 222 223 223 223 224 226 228 229 231 233 236 240 244 247 251 257 262 267 272 277 281 285 289 293 297 301 304 307 309 311 313 314 315
215 214 215 216 216 216 217 219 220 222 223 223 223 224 225 226 228 230 232 234 237 240 244 248 252 257 263 267 272 276 280 284 289 292 296 300 303 306 308 310 312 313 313
215 214 215 216 216 216 217 218 220 222 223 223 224 224 225 227 229 231 233 235 238 241 245 248 252 258 263 268 271 275 279 283 287 291 294 298 302 305 307 309 310 311 313
215 214 215 216 216 217 217 217 219 221 223 224 225 225 227 228 230 232 233 236 239 242 245 249 253 258 263 267 272 276 279 283 286 290 293 297 301 304 306 308 309 311 312
Height
5862 5864 5865 5867 5869 5870 5871 5873 5874 5875 5876 5876 5877 5878 5878 5878 5878 5878 5878 5878 5878 5878 5877 5877 5876 5876 5876 5875 5874 5873 5872 5871 5870 5868 5867 5865 5864 5862 5860 5858 5856 5853 5851
5858 5860 5862 5864 5865 5867 5869 5870 5871 5872 5873 5874 5875 5876 5876 5877 5877 5877 5877 5877 5877 5876 5876 5876 5875 5875 5874 5874 5873 5872 5871 5870 5868 5867 5866 5864 5862 5860 5858 5856 5854 5851 5849
5853 5856 5857 5860 5862 5863 5865 5867 5868 5870 5871 5872 5873 5874 5874 5875 5875 5875 5875 5875 5875 5875 5875 5875 5874 5874 5873 5872 5872 5871 5870 5868 5867 5866 5864 5863 5861 5859 5857 5854 5852 5849 5846
5848 5851 5853 5855 5857 5859 5861 5863 5865 5866 5868 5869 5870 5871 5872 5872 5873 5873 5874 5874 5874 5874 5873 5873 5873 5872 5872 5871 5870 5869 5868 5867 5866 5864 5863 5861 5859 5857 5855 5852 5850 5847 5844
5843 5845 5848 5850 5853 5855 5857 5859 5861 5863 5865 5866 5867 5868 5869 5870 5871 5871 5871 5872 5872 5872 5872 5871 5871 5871 5870 5869 5869 5868 5867 5866 5864 5863 5861 5859 5857 5855 5853 5850 5847 5845 5842
5836 5839 5842 5845 5848 5850 5852 5855 5857 5859 5861 5862 5864 5865 5866 5867 5868 5869 5869 5870 5870 5870 5870 5870 5870 5869 5869 5868 5867 5866 5865 5864 5862 5861 5859 5857 5855 5853 5850 5848 5845 5842 5839
5830 5833 5836 5839 5842 5845 5847 5850 5852 5854 5857 5859 5860 5862 5863 5864 5865 5866 5867 5867 5868 5868 5868 5868 5868 5867 5867 5866 5865 5864 5863 5862 5861 5859 5857 5855 5853 5851 5848 5845 5842 5839 5836
5822 5826 5829 5832 5836 5839 5842 5844 5847 5850 5852 5854 5856 5858 5860 5861 5862 5863 5864 5865 5865 5866 5866 5866 5866 5865 5865 5864 5863 5862 5861 5860 5859 5857 5855 5853 5851 5848 5845 5843 5840 5836 5833
5814 5818 5822 5825 5829 5832 5835 5839 5842 5845 5847 5850 5852 5854 5856 5858 5859 5860 5861 5862 5862 5863 5863 5863 5863 5863 5862 5862 5861 5860 5859 5858 5856 5854 5852 5850 5848 5845 5843 5840 5837 5833 5830
5806 5811 5815 5818 5822 5826 5829 5832 5836 5839 5843 5845 5848 5850 5852 5854 5855 5857 5858 5859 5860 5860 5860 5861 5861 5861 5860 5860 5859 5858 5857 5855 5854 5852 5850 5848 5845 5842 5840 5837 5834 5830 5827
5798 5802 5807 5811 5815 5819 5822 5826 5830 5834 5837 5840 5843 5845 5847 5849 5851 5853 5854 5855 5856 5857 5858 5858 5858 5858 5857 5857 5856 5855 5854 5853 5851 5849 5847 5845 5842 5840 5837 5834 5830 5827 5823
5789 5794 5799 5803 5808 5812 5816 5820 5824 5828 5831 5835 5838 5840 5843 5845 5847 5849 5850 5852 5853 5854 5854 5855 5855 5855 5855 5854 5853 5852 5851 5850 5848 5846 5844 5842 5839 5836 5833 5830 5827 5823 5820
5780 5785 5791 5795 5800 5804 5809 5813 5817 5821 5825 5829 5832 5835 5838 5840 5843 5845 5847 5848 5849 5850 5851 5851 5852 5852 5852 5851 5850 5849 5848 5847 5845 5843 5841 5838 5836 5833 5830 5826 5823 5819 5816
5770 5776 5781 5787 5792 5797 5801 5806 5810 5815 5819 5823 5826 5829 5833 5836 5838 5840 5843 5844 5845 5847 5847 5848 5848 5848 5848 5848 5847 5846 5845 5843 5841 5839 5837 5835 5832 5829 5826 5822 5819 5815 5811
5760 5767 5772 5778 5783 5789 5794 5799 5803 5808 5812 5816 5820 5824 5827 5831 5833 5836 5838 5840 5841 5843 5844 5844 5845 5845 5844 5844 5843 5842 5841 5839 5838 5836 5833 5831 5828 5825 5822 5818 5815 5811 5807
5750 5757 5763 5769 5775 5781 5786 5791 5796 5801 5805 5810 5814 5818 5822 5825 5828 5831 5833 5835 5837 5838 5840 5840 5841 5841 5841 5840 5839 5838 5837 5835 5834 5832 5829 5827 5824 5821 5817 5814 5810 5806 5802
5740 5747 5754 5760 5766 5772 5778 5784 5789 5794 5799 5803 5807 5812 5816 5819 5822 5825 5828 5831 5832 5834 5835 5836 5836 5837 5837 5836 5835 5834 5833 5831 5829 5827 5825 5822 5819 5816 5813 5809 5805 5801 5797
5730 5738 5745 5751 5758 5764 5770 5776 5781 5787 5792 5797 5801 5805 5809 5813 5817 5820 5823 5825 5828 5829 5830 5831 5832 5832 5832 5832 5831 5830 5828 5827 5825 5823 5820 5818 5815 5811 5808 5804 5800 5796 5791
5720 5728 5736 5743 5749 5756 5762 5768 5774 5779 5785 5790 5794 5799 5803 5807 5811 5814 5817 5820 5822 5824 5826 5827 5827 5828 5828 5827 5826 5825 5824 5822 5820 5818 5816 5813 5810 5806 5803 5799 5795 5790 5786
5711 5719 5727 5734 5741 5748 5754 5761 5766 5772 5777 5782 5788 5792 5797 5801 5805 5808 5811 5814 5817 5819 5820 5821 5822 5823 5823 5822 5821 5820 5819 5817 5815 5813 5811 5808 5805 5801 5797 5793 5789 5784 5780
5701 5710 5718 5726 5733 5740 5747 5753 5759 5765 5770 5776 5781 5786 5790 5794 5798 5802 5805 5808 5811 5813 5815 5816 5817 5817 5817 5817 5816 5815 5814 5812 5810 5808 5805 5802 5799 5796 5792 5787 5783 5778 5773
5693 5701 5709 5717 5725 5732 5739 5746 5752 5757 5763 5768 5773 5778 5783 5787 5791 5795 5799 5802 5805 5807 5809 5810 5811 5812 5812 5811 5811 5810 5808 5807 5805 5802 5799 5797 5793 5790 5786 5781 5776 5772 5767
5684 5693 5701 5709 5716 5724 5730 5736 5743 5749 5755 5761 5766 5771 5776 5780 5785 5789 5792 5795 5798 5801 5802 5804 5805 5806 5806 5805 5805 5804 5803 5801 5799 5797 5794 5791 5787 5783 5779 5775 5770 5765 5759
5676 5684 5692 5700 5708 5715 5722 5729 5736 5743 5749 5755 5759 5764 5769 5773 5778 5781 5785 5789 5791 5794 5796 5797 5798 5799 5799 5799 5798 5797 5796 5795 5793 5791 5788 5784 5781 5777 5772 5768 5763 5758 5752
5666 5675 5683 5691 5699 5706 5714 5721 5728 5735 5741 5746 5751 5756 5761 5766 5770 5774 5778 5782 5785 5787 5789 5791 5792 5793 5793 5793 5792 5791 5790 5788 5786 5784 5781 5778 5774 5770 5766 5761 5756 5750 5745
5657 5666 5675 5683 5691 5698 5706 5713 5720 5727 5733 5738 5743 5749 5754 5758 5763 5767 5771 5774 5777 5780 5782 5783 5785 5786 5786 5786 5785 5784 5783 5781 5779 5777 5774 5771 5767 5763 5758 5753 5748 5743 5737